Location: Seattle
(47.6064°N, 122.3308°W)
Time: 09:17:12
(UTC-07:00)

RS-15 - Pass Details

Date: 09 April 2023
Orbit: 1885 x 2159 km, 64.8° (Epoch: 01 June)

Event Time Altitude Azimuth Distance (km) Brightness Sun altitude
Rises 23:55:40 0° 321° (NW) 5,638 11.5 -32.4°
Reaches altitude 10° 23:59:09 10° 321° (NW) 4,607 10.7 -32.6°
Maximum altitude 00:11:04 76° 239° (WSW) 2,086 7.9 -33.3°
Enters shadow 00:13:24 62° 178° (S) 2,221 7.9 -33.4°
